Temp
15 14 13 12 12 12 12 11 11 11 10 10 10 10 10 10 10 10 10 9 9 9 9 9 9 9 9 8 8 8 8 7 7 7 7 7 8 8 8 8 8 8 8
15 14 14 13 12 12 11 11 11 10 10 10 10 10 10 10 10 10 10 10 9 9 9 9 9 8 8 8 8 8 8 8 7 8 8 8 8 7 7 8 8 8 8
15 15 14 13 12 12 11 11 11 10 10 10 10 10 10 10 10 9 9 9 9 9 9 9 9 9 8 8 8 8 8 8 8 8 8 8 8 8 8 8 8 8 8
15 15 14 13 12 12 11 11 11 10 10 10 10 10 10 10 9 9 9 9 9 9 9 9 9 9 8 8 8 9 9 8 8 8 8 8 8 8 8 8 8 8 8
15 15 14 14 13 12 11 11 11 10 10 10 9 9 9 9 9 9 9 9 9 9 9 9 9 9 8 8 8 8 9 9 8 8 8 8 8 8 8 8 8 8 8
15 15 14 14 13 12 11 11 11 10 10 10 10 9 9 9 9 9 9 9 9 9 8 8 8 8 8 9 8 8 8 9 9 8 8 7 8 8 8 8 8 8 8
15 15 15 14 13 12 12 11 11 10 10 10 10 9 9 9 9 9 9 9 9 9 9 8 8 8 8 8 8 8 8 8 9 9 9 7 7 7 7 7 7 7 7
15 15 15 14 13 13 12 11 11 11 10 10 10 9 9 9 9 9 9 9 8 8 8 8 8 8 8 8 8 8 8 7 8 8 8 7 7 7 7 7 7 7 7
15 15 15 14 14 13 12 12 11 11 10 10 10 9 9 9 9 9 9 9 8 8 8 8 8 8 8 7 7 7 7 7 8 8 8 7 7 7 7 7 7 7 7
15 15 14 14 14 14 13 12 12 11 10 10 10 10 9 9 9 9 9 9 9 9 8 8 8 8 8 7 7 7 7 7 8 7 8 7 7 7 7 7 7 7 7
15 14 14 14 14 13 13 13 13 12 11 11 10 10 9 9 9 9 9 9 9 9 9 8 8 8 8 8 7 7 7 7 7 7 7 7 7 7 7 7 7 7 7
15 14 14 14 14 13 13 13 13 13 12 11 11 10 10 9 9 9 9 9 9 9 9 8 8 8 8 8 8 7 7 7 7 8 7 7 7 7 7 7 7 7 7
14 14 14 14 14 13 13 13 13 13 12 12 11 10 10 9 9 9 9 9 9 9 8 8 8 8 8 8 8 8 8 7 7 8 8 7 7 7 7 7 7 6 6
14 14 14 14 13 13 13 13 13 13 12 12 11 10 10 10 9 9 9 9 8 8 8 8 8 8 8 8 8 8 8 7 7 7 8 8 7 7 7 6 6 6 6
14 14 14 13 13 13 13 13 13 13 12 11 11 10 10 10 9 9 9 9 8 8 8 8 8 8 8 8 8 8 7 7 7 8 7 8 7 6 6 6 6 6 6
14 14 14 13 13 13 13 13 13 12 12 11 11 10 10 10 10 10 9 9 9 8 8 8 8 8 8 7 8 8 8 7 7 7 7 7 7 7 6 6 7 7 7
14 14 13 13 13 13 13 12 13 13 12 12 11 11 11 10 10 10 10 9 9 9 9 8 8 8 8 8 7 7 7 7 7 7 7 7 7 7 7 7 7 7 7
12 13 13 12 13 12 13 12 12 12 13 12 12 11 11 11 10 10 10 10 9 9 9 9 8 8 8 8 8 8 7 7 7 7 7 7 7 7 7 7 7 6 6
10 12 13 12 12 12 12 12 12 12 13 12 12 11 10 11 10 10 9 9 9 9 9 9 9 9 9 8 8 8 9 8 7 7 7 6 7 7 7 7 7 6 6
11 10 11 13 12 12 12 12 12 12 12 12 12 12 11 10 10 10 10 9 9 9 9 9 9 8 8 8 8 8 8 8 7 7 7 7 7 7 7 7 7 7 6
11 10 10 10 11 11 11 12 12 12 12 12 12 12 12 11 10 10 10 9 9 9 9 8 8 8 8 8 8 8 8 8 7 7 7 7 7 7 7 7 7 7 7
11 10 10 10 10 10 11 11 11 12 12 12 12 12 11 11 11 10 10 10 10 9 9 9 9 8 8 8 8 8 8 8 8 8 7 7 7 7 7 7 6 6 6
11 11 10 10 10 10 11 11 11 11 11 11 11 11 12 11 11 10 10 10 10 10 10 9 9 9 8 8 8 8 7 8 8 8 8 8 7 7 7 7 6 6 6
11 11 11 11 10 9 10 10 11 11 11 11 11 11 11 11 11 11 10 10 10 10 10 10 9 9 9 9 8 8 8 8 8 8 8 8 7 7 6 6 5 5 5
11 11 11 11 10 10 10 9 9 10 10 11 10 10 10 10 10 10 10 10 10 10 10 10 10 10 9 9 9 9 8 8 8 8 8 8 7 6 6 6 5 5 5
10 10 10 10 9 9 9 8 8 9 10 10 10 10 10 10 10 10 10 10 10 10 10 10 10 10 10 9 9 9 9 8 8 8 8 7 7 7 6 6 6 5 4
Height
3170 3172 3173 3174 3174 3176 3176 3177 3177 3178 3179 3180 3181 3182 3183 3185 3186 3187 3188 3189 3190 3190 3191 3191 3191 3191 3193 3193 3194 3195 3196 3197 3197 3198 3199 3200 3200 3200 3200 3201 3201 3201 3201
3171 3172 3173 3174 3175 3176 3177 3178 3178 3179 3180 3181 3182 3184 3185 3186 3187 3189 3189 3190 3191 3192 3192 3193 3192 3193 3194 3195 3195 3196 3197 3199 3200 3201 3201 3202 3202 3202 3202 3202 3202 3203 3203
3171 3171 3173 3174 3175 3176 3178 3179 3179 3180 3181 3182 3183 3185 3187 3188 3189 3190 3191 3192 3193 3194 3194 3195 3195 3195 3195 3196 3197 3198 3199 3200 3201 3202 3202 3203 3204 3204 3205 3204 3204 3204 3204
3170 3171 3172 3174 3175 3176 3178 3179 3180 3181 3182 3183 3185 3186 3188 3189 3190 3191 3192 3193 3194 3195 3195 3196 3196 3196 3197 3198 3198 3200 3201 3202 3203 3203 3204 3203 3205 3205 3205 3205 3205 3205 3205
3170 3171 3172 3174 3175 3176 3178 3179 3180 3182 3183 3184 3185 3187 3189 3190 3191 3193 3194 3194 3195 3196 3196 3197 3197 3198 3199 3199 3200 3201 3202 3203 3204 3204 3205 3204 3206 3207 3207 3207 3207 3207 3207
3169 3170 3172 3174 3175 3176 3177 3179 3180 3182 3183 3184 3186 3187 3189 3191 3192 3194 3195 3196 3196 3198 3198 3199 3199 3200 3200 3201 3201 3202 3203 3204 3204 3204 3204 3205 3208 3208 3209 3209 3209 3209 3209
3168 3170 3172 3173 3174 3176 3177 3178 3180 3181 3183 3184 3186 3187 3189 3191 3193 3194 3195 3196 3197 3198 3199 3200 3202 3203 3203 3203 3204 3204 3205 3206 3206 3206 3204 3207 3209 3210 3210 3210 3210 3210 3210
3168 3169 3171 3172 3174 3175 3177 3178 3179 3180 3182 3184 3185 3187 3188 3190 3192 3194 3195 3197 3198 3199 3200 3201 3202 3203 3204 3205 3206 3206 3206 3206 3207 3207 3207 3208 3210 3210 3211 3211 3211 3210 3210
3166 3168 3170 3171 3173 3175 3176 3178 3178 3180 3181 3183 3185 3186 3187 3189 3191 3193 3195 3197 3198 3199 3200 3202 3202 3203 3205 3206 3206 3207 3207 3206 3207 3208 3209 3209 3209 3210 3210 3210 3210 3210 3209
3164 3166 3168 3170 3172 3174 3175 3177 3178 3179 3180 3182 3184 3186 3187 3188 3190 3192 3194 3196 3198 3199 3200 3201 3203 3204 3205 3206 3206 3207 3207 3207 3206 3207 3207 3208 3209 3210 3209 3209 3209 3208 3208
3161 3164 3166 3169 3171 3173 3174 3175 3176 3178 3179 3180 3181 3184 3186 3188 3189 3191 3193 3195 3197 3198 3200 3201 3202 3203 3205 3206 3207 3207 3207 3207 3206 3207 3208 3208 3208 3208 3207 3207 3207 3206 3206
3159 3161 3164 3167 3169 3171 3173 3174 3176 3177 3178 3179 3181 3182 3185 3187 3189 3190 3192 3194 3196 3198 3199 3200 3201 3203 3204 3204 3205 3206 3206 3206 3206 3206 3207 3207 3206 3206 3206 3206 3205 3204 3204
3157 3159 3162 3164 3167 3169 3171 3173 3174 3176 3177 3178 3179 3181 3182 3184 3187 3189 3191 3193 3194 3196 3198 3199 3200 3201 3202 3203 3204 3205 3205 3205 3204 3204 3205 3205 3205 3205 3204 3204 3203 3202 3201
3153 3156 3159 3161 3164 3166 3169 3171 3173 3174 3175 3176 3177 3178 3181 3183 3184 3187 3189 3191 3192 3194 3196 3197 3198 3199 3200 3201 3202 3202 3202 3203 3201 3202 3203 3203 3202 3202 3202 3201 3200 3200 3198
3149 3152 3155 3158 3161 3164 3166 3168 3170 3172 3173 3174 3175 3176 3179 3181 3182 3185 3186 3188 3190 3191 3193 3194 3195 3197 3197 3198 3199 3200 3200 3200 3199 3200 3200 3200 3200 3199 3198 3197 3197 3196 3195
3145 3148 3152 3154 3157 3160 3163 3165 3168 3169 3171 3172 3173 3174 3176 3179 3180 3182 3184 3185 3186 3188 3190 3191 3192 3193 3194 3195 3195 3196 3196 3196 3196 3195 3196 3196 3196 3195 3195 3194 3193 3193 3192
3140 3145 3147 3151 3154 3156 3160 3162 3165 3167 3167 3169 3171 3172 3174 3175 3178 3179 3181 3183 3184 3186 3186 3188 3189 3190 3191 3191 3192 3192 3192 3192 3192 3192 3192 3192 3192 3192 3191 3191 3190 3189 3189
3133 3137 3143 3147 3150 3152 3156 3158 3160 3163 3164 3167 3168 3170 3171 3172 3174 3176 3178 3180 3182 3183 3184 3185 3186 3186 3187 3188 3188 3189 3188 3188 3188 3188 3188 3187 3187 3187 3187 3187 3186 3185 3185
3127 3130 3137 3141 3146 3148 3151 3154 3156 3159 3162 3163 3166 3167 3168 3170 3172 3174 3175 3176 3178 3179 3181 3182 3182 3183 3183 3184 3184 3184 3184 3184 3184 3183 3183 3183 3183 3183 3182 3183 3183 3182 3181
3121 3123 3130 3134 3140 3144 3145 3147 3151 3154 3157 3160 3161 3164 3166 3167 3168 3170 3172 3173 3174 3175 3176 3178 3179 3179 3180 3180 3180 3180 3179 3179 3179 3179 3178 3178 3178 3180 3179 3179 3178 3178 3177
3116 3116 3122 3126 3131 3137 3138 3139 3143 3147 3150 3153 3156 3159 3162 3164 3165 3166 3168 3170 3171 3172 3173 3174 3175 3176 3177 3177 3176 3176 3176 3175 3175 3175 3175 3175 3174 3174 3176 3176 3175 3173 3173
3111 3108 3114 3119 3124 3129 3134 3137 3139 3141 3144 3148 3152 3155 3157 3160 3161 3162 3164 3166 3168 3169 3170 3171 3172 3172 3173 3173 3173 3172 3172 3173 3172 3172 3171 3171 3171 3170 3170 3170 3169 3168 3168
3105 3103 3106 3112 3116 3121 3126 3131 3133 3135 3137 3141 3145 3148 3150 3153 3156 3158 3160 3161 3163 3165 3166 3168 3168 3168 3168 3169 3168 3168 3166 3167 3168 3167 3167 3167 3166 3165 3164 3163 3161 3160 3160
3095 3097 3099 3104 3108 3114 3117 3120 3124 3126 3129 3135 3139 3142 3144 3147 3150 3153 3156 3157 3158 3159 3161 3162 3163 3164 3164 3164 3164 3163 3162 3161 3161 3163 3162 3161 3159 3158 3157 3156 3155 3153 3151
3083 3090 3093 3097 3101 3104 3107 3110 3116 3120 3123 3129 3131 3135 3137 3140 3143 3146 3149 3151 3152 3152 3154 3156 3156 3157 3158 3158 3158 3158 3156 3156 3154 3155 3156 3156 3155 3154 3152 3149 3148 3149 3146
3079 3085 3088 3089 3092 3096 3099 3103 3109 3114 3117 3118 3121 3125 3129 3132 3134 3137 3141 3142 3144 3145 3146 3148 3149 3149 3150 3149 3151 3151 3151 3150 3149 3147 3148 3149 3149 3148 3146 3144 3141 3139 3137
Wind_Speed
11 8 9 12 14 16 17 20 22 23 23 23 22 21 20 19 19 19 18 17 16 17 17 16 17 17 16 17 18 17 17 17 16 15 14 14 14 14 15 13 14 14 13
5 8 9 11 13 15 17 19 21 22 23 23 23 22 20 20 19 19 19 18 17 17 17 15 16 16 15 16 16 16 16 15 14 13 14 13 13 13 12 11 13 12 11
6 6 7 11 12 14 16 18 20 21 23 23 23 22 20 19 19 19 19 19 19 18 18 17 15 15 15 16 16 15 15 15 15 14 14 14 13 13 12 12 13 12 12
6 6 6 11 13 14 15 17 18 19 20 22 22 22 21 19 18 18 18 18 19 18 19 18 17 16 16 16 16 14 14 14 14 14 14 16 14 13 13 14 13 13 13
8 6 6 9 13 14 15 16 17 18 18 19 20 20 19 19 19 17 16 17 17 17 18 18 18 18 17 16 16 15 14 15 15 15 15 18 14 14 13 13 13 12 13
9 7 7 8 11 13 15 16 16 16 16 17 17 17 17 17 17 16 16 15 15 15 15 16 16 16 15 15 14 13 13 12 14 16 16 16 12 12 11 12 11 11 11
10 8 7 9 10 13 14 15 16 16 15 15 16 16 15 14 14 14 14 14 14 14 14 14 14 13 12 13 12 12 11 9 9 10 16 12 8 9 8 8 8 8 8
11 10 9 9 10 12 13 14 15 16 15 15 14 14 14 13 12 12 11 11 12 12 12 13 13 13 11 10 9 8 8 7 5 9 9 10 6 6 6 7 8 8 9
16 13 10 10 10 12 13 13 14 15 15 15 14 14 14 14 12 11 10 10 10 10 10 10 10 10 10 9 7 6 4 1 5 9 7 6 5 4 5 6 8 9 9
18 16 13 12 11 10 11 12 13 14 15 16 15 15 14 14 13 12 10 10 10 9 9 9 9 8 8 7 6 5 3 3 4 6 7 5 5 6 7 8 10 11 11
23 19 16 14 13 12 11 10 10 11 13 14 16 15 14 13 13 12 12 11 10 9 9 8 8 8 8 8 7 6 6 6 7 6 6 4 6 8 9 10 12 13 13
25 22 20 17 16 14 11 9 7 7 8 10 11 13 13 13 13 13 13 12 10 9 9 8 8 8 8 8 9 9 9 9 9 10 10 8 9 10 11 12 13 14 15
26 23 21 21 18 16 12 9 6 6 8 9 11 12 14 14 13 12 12 11 10 10 10 9 9 9 10 10 10 10 11 10 14 12 13 11 12 13 14 14 15 15 15
31 27 24 24 21 17 15 10 8 4 9 11 11 12 12 12 12 11 12 12 12 11 11 11 11 12 12 12 11 12 13 13 16 15 14 13 11 13 14 15 16 16 17
35 31 28 27 24 19 17 12 9 5 9 13 13 12 11 10 11 11 12 11 12 12 12 12 13 12 13 13 14 14 15 14 16 16 15 15 13 13 15 16 17 17 17
35 35 32 31 28 23 21 15 11 7 9 13 14 12 11 11 12 11 12 11 11 11 12 12 12 13 13 14 15 14 15 15 16 19 18 16 15 15 16 18 18 16 16
32 35 35 33 31 27 22 19 16 11 9 11 13 14 13 12 12 12 11 12 11 10 11 10 11 11 12 13 14 15 16 17 17 19 18 18 17 17 17 18 15 14 14
32 36 35 34 34 31 27 23 19 15 11 12 14 15 15 14 13 13 12 9 10 10 10 9 9 10 10 12 13 14 15 17 16 16 17 17 17 17 16 15 13 14 15
33 35 36 34 35 35 31 27 24 20 16 15 14 15 16 14 13 12 13 12 10 10 9 9 9 9 9 11 12 15 16 13 13 16 17 17 18 17 17 16 14 15 17
36 37 34 36 33 38 36 33 29 26 22 20 19 15 15 16 13 13 12 13 13 12 11 11 11 11 11 12 14 16 15 15 15 16 18 19 19 17 17 17 18 20 20
41 43 40 40 39 36 42 40 35 32 30 27 22 20 16 17 16 14 13 13 13 12 11 12 13 14 15 16 17 17 16 17 17 19 20 19 21 21 19 19 21 23 24
40 43 41 42 41 41 42 42 39 35 33 30 26 22 20 19 19 19 16 15 15 14 14 14 14 15 17 19 20 20 21 20 18 19 21 21 21 22 22 23 24 25 26
44 45 44 40 42 44 42 44 43 42 39 36 32 29 27 26 24 22 20 20 21 21 20 19 19 20 20 21 23 24 25 24 21 21 21 21 23 22 24 27 29 29 29
41 45 44 39 39 44 45 41 48 48 46 40 37 36 33 30 27 25 24 25 26 26 25 25 25 25 25 25 26 27 27 27 26 25 24 24 26 27 27 29 31 32 32
36 48 47 41 40 39 44 46 41 44 48 43 42 40 38 36 34 32 30 31 31 33 32 32 32 32 30 29 28 28 29 29 31 29 27 27 26 27 30 35 38 34 35
22 34 41 41 37 39 43 45 44 44 46 49 46 45 44 42 40 39 37 37 38 38 37 37 36 37 37 35 31 32 32 32 31 33 31 29 29 30 32 36 40 39 37
Wind_Direction
142 132 129 138 143 139 133 126 119 116 113 111 109 108 108 109 110 112 111 110 110 107 102 101 101 99 96 98 98 97 93 92 95 97 93 91 90 87 82 78 80 80 79
129 127 126 137 144 144 138 130 123 117 114 111 109 108 109 110 109 110 111 110 106 104 102 101 101 101 103 99 96 95 95 98 98 99 99 95 91 89 89 90 84 76 75
145 130 130 138 145 147 145 136 127 122 117 113 111 108 108 109 110 111 111 110 107 106 104 103 102 106 107 103 101 102 106 108 107 103 99 91 86 84 80 74 74 70 63
148 149 137 140 146 150 150 144 135 128 122 118 115 112 111 109 108 109 111 111 110 108 104 101 98 102 109 111 112 108 105 103 102 101 100 91 85 82 80 75 70 68 68
150 169 155 146 147 152 155 151 144 136 130 125 121 117 114 113 112 110 109 110 108 109 108 105 101 103 108 112 111 110 108 109 119 110 96 85 80 75 70 70 67 63 59
156 174 169 157 150 153 157 157 152 147 140 134 129 125 123 119 116 115 113 110 107 106 105 104 104 107 109 108 107 106 103 110 115 107 96 86 79 71 66 61 56 49 47
172 179 182 170 160 157 159 160 160 156 152 148 142 137 134 129 127 125 122 120 117 114 110 107 105 105 104 106 109 107 105 105 101 104 102 99 88 77 61 50 42 35 32
186 183 189 185 172 164 162 163 165 165 163 162 158 152 148 144 141 138 135 131 127 124 122 120 119 117 115 113 109 105 105 110 85 103 98 109 90 64 46 27 19 16 12
185 191 194 197 190 172 168 167 168 170 173 175 174 169 164 160 158 154 154 152 147 141 139 137 134 133 134 135 133 125 119 47 30 57 83 85 74 36 15 0 353 351 348
190 192 197 198 197 186 177 172 172 175 180 182 184 184 182 178 172 172 172 173 171 166 161 158 157 156 155 158 166 172 186 245 334 350 13 24 359 346 338 331 328 327 327
195 194 196 199 193 183 178 177 177 181 186 190 190 192 193 191 188 186 187 190 190 188 186 185 182 180 183 187 196 209 234 250 281 300 311 320 305 309 310 309 310 311 312
204 200 197 195 191 185 181 178 180 189 191 192 196 195 197 200 200 201 200 202 203 205 208 207 207 208 210 214 216 221 233 257 268 280 284 281 283 290 296 300 305 307 308
212 203 200 194 194 193 193 193 194 203 208 201 197 200 200 202 206 212 215 213 214 218 221 224 227 227 229 235 238 246 250 249 260 271 275 287 291 296 299 300 302 303 305
212 205 203 198 198 202 196 196 201 234 225 214 205 207 208 209 209 213 217 218 218 220 228 231 234 238 242 246 250 254 258 255 264 272 279 280 287 293 297 299 300 300 301
210 209 205 203 203 205 202 207 213 241 242 220 214 213 214 211 216 209 223 223 226 229 229 235 239 244 249 252 251 250 252 259 264 276 280 286 290 291 290 289 293 296 299
214 212 210 206 206 209 208 212 219 232 236 232 223 220 218 214 218 218 218 224 230 235 238 240 244 248 250 257 263 264 264 268 275 278 281 284 285 284 287 292 297 299 302
227 215 216 213 210 215 211 216 221 230 233 239 226 221 224 221 219 228 225 214 234 233 244 243 254 255 261 261 260 263 269 269 264 266 277 279 277 281 284 287 290 295 298
239 227 217 218 216 218 219 216 220 219 231 233 229 224 228 228 229 227 242 231 227 238 243 253 258 265 264 269 273 274 270 268 268 270 269 274 278 281 284 284 290 294 303
247 240 228 220 219 220 222 221 221 219 216 217 221 221 224 234 236 237 239 251 250 254 254 257 264 274 282 282 280 278 274 273 270 270 272 273 276 283 285 289 294 295 305
242 246 241 235 224 220 221 219 219 222 224 223 224 222 209 222 231 239 236 245 258 267 275 283 286 284 284 283 283 281 288 286 278 271 275 280 282 281 284 295 299 300 311
234 237 236 238 240 229 221 223 222 230 237 235 235 227 222 222 229 239 242 246 256 268 278 281 285 289 289 283 284 287 283 276 272 271 273 277 282 288 291 295 295 303 304
225 235 237 235 237 243 229 227 227 229 230 234 234 237 236 230 232 237 248 249 256 266 273 282 289 287 285 285 284 279 280 280 279 277 273 274 281 288 294 292 293 295 299
228 234 237 237 236 240 244 230 229 229 226 226 231 240 240 237 237 238 243 250 254 262 268 275 281 286 290 286 284 281 278 283 282 276 279 281 280 284 289 292 291 293 297
228 236 240 241 240 240 243 243 231 233 234 233 235 240 243 245 246 248 247 252 257 261 265 271 277 281 281 285 284 282 281 279 278 277 277 281 285 289 290 291 289 292 294
222 232 235 239 242 247 243 242 244 242 238 235 236 238 242 246 250 254 256 260 262 267 269 271 273 277 277 275 279 279 275 275 276 277 278 279 281 285 288 290 287 290 290
205 224 231 234 238 244 244 239 243 247 243 238 238 239 241 244 249 254 260 263 266 269 268 271 273 272 275 274 267 272 270 272 277 278 278 279 279 280 283 288 292 293 293